Flag for Pakistan Weather past 2 weeks in Narowal, Pakistan

Now
77 °F

Fog.


Feels Like: 78 °F
Forecast: 74 / 91 °F
Wind: No wind

Location: Amritsar Airport

Current Time: Oct 2, 2014 at 3:58:07 AM

Latest Report: Oct 2, 2014 at 2:30 AM


Visibility: 1 mi

Pressure: 29.86 "Hg

Humidity: 94%

Dew point: 75 °F

Location of NarowalLocation

Historic Weather in Narowal — Graph

°F

Narowal temperature yesterday

Maximum temperature yesterday: 93 °F (at 1:00 PM)
Minimum temperature yesterday: 75 °F (at 2:30 AM)
Average temperature yesterday: 82 °F

Past Weeks' High & Low Weather Summary

 TemperatureHumidityPressure
High95 °F (Sep 18, 2:30 PM)100% (Sep 17, 2:00 AM)29.92 "Hg (Sep 17, 2:00 AM)
Low72 °F (Sep 17, 5:30 AM)44% (Sep 28, 1:30 PM)29.59 "Hg (Sep 17, 4:00 AM)
Average83 °F80%29.75 "Hg
* Reported Sep 17 2:00 AM — Oct 2 2:30 AM, Narowal, Weather by CustomWeather, © 2014

Note: Actual official high and low records may vary slightly from our data, if they occured in-between our weather recording intervals... More about our weather records

Advertising

Narowal weather history for previous 24 hours

 ConditionsComfort  
Time TempWeatherWind HumidityBarometerVisibility
2:30 AM
Oct 2
77 °FFog.No wind94%29.86 "Hg1 mi
2:00 AM77 °FFog.No wind94%29.86 "Hg1 mi
1:30 AM77 °FFog.No wind94%29.86 "Hg1 mi
12:30 AM77 °FFog.No wind89%29.86 "Hg1 mi
12:00 AM79 °FFog.No wind84%29.89 "Hg1 mi
11:30 PM
Oct 1
79 °FFog.No wind84%29.89 "Hg1 mi
11:00 PM79 °FFog.No wind84%29.89 "Hg1 mi
10:30 PM79 °FFog.No wind84%29.89 "Hg1 mi
10:00 PM79 °FFog.No wind84%29.89 "Hg1 mi
9:30 PM81 °FFog.No wind79%29.89 "Hg1 mi
9:00 PM81 °FFog.No wind84%29.89 "Hg1 mi
8:30 PM81 °FFog.No wind84%29.89 "Hg1 mi
8:00 PM81 °FFog.No wind84%29.89 "Hg1 mi
7:30 PM81 °FFog.No wind89%29.86 "Hg2 mi
7:00 PM82 °FFog.No wind79%29.86 "Hg2 mi
6:30 PM82 °FFog.No wind79%29.86 "Hg2 mi
6:00 PM84 °FScattered clouds.No wind70%29.83 "Hg2 mi
5:30 PM84 °FScattered clouds.No wind74%29.83 "Hg2 mi
5:00 PM86 °FScattered clouds.No wind66%29.83 "Hg2 mi
4:30 PM86 °FScattered clouds.No wind62%29.83 "Hg2 mi
4:00 PM84 °FScattered clouds.5 mph66%29.83 "Hg2 mi
3:30 PM86 °FScattered clouds.5 mph62%29.83 "Hg2 mi
3:00 PM86 °FScattered clouds.7 mph62%29.83 "Hg2 mi
2:30 PM88 °FScattered clouds.8 mph62%29.86 "Hg2 mi
2:00 PM91 °FScattered clouds.5 mph56%29.86 "Hg3 mi
1:30 PM91 °FScattered clouds.1 mph52%29.86 "Hg3 mi
1:00 PM93 °FScattered clouds.No wind53%29.89 "Hg3 mi
12:30 PM91 °FScattered clouds.No wind56%29.89 "Hg3 mi
10:00 AM88 °FScattered clouds.1 mph62%29.92 "Hg2 mi
9:30 AM86 °FScattered clouds.1 mph66%29.92 "Hg2 mi
9:00 AM84 °FFog.1 mph74%29.92 "Hg2 mi
8:30 AM82 °FFog.No wind84%29.92 "Hg2 mi
8:00 AM81 °FFog.No wind89%29.92 "Hg2 mi
7:30 AM79 °FFog.No wind94%29.92 "Hg1 mi
7:00 AM77 °FFog.No wind94%29.89 "Hg1 mi
6:30 AM75 °FFog.No wind100%29.89 "Hg1 mi
6:00 AM75 °FFog.No wind100%29.89 "Hg1 mi
5:30 AM75 °FFog.No wind100%29.86 "Hg1 mi
5:00 AM75 °FFog.No wind100%29.86 "Hg1 mi
4:30 AM75 °FFog.No wind100%29.86 "Hg1 mi
3:30 AM75 °FFog.No wind100%29.86 "Hg1 mi
3:00 AM75 °FFog.No wind100%29.86 "Hg1 mi
Weather by CustomWeather, © 2014

See weather overviewHow to use our weather pages